Weather History for Roxboro, NC

Change the Weather History Date:

Sunday, September 18, 2011

  Actual Average Record
Temperature  
Mean Temperature 63 °F -  
Max Temperature 69 °F 80 °F 93 °F (1991)
Min Temperature 57 °F 55 °F 38 °F (1990)
Degree Days  
Heating Degree Days 2    
Growing Degree Days 13 (Base 50)    
Moisture  
Dew Point 53 °F    
Average Humidity 78    
Maximum Humidity 94    
Minimum Humidity 56    
Precipitation  
Precipitation 0.00 in - - ()
Sea Level Pressure  
Sea Level Pressure 30.33 in    
Wind  
Wind Speed 1 mph (NE)    
Max Wind Speed 12 mph    
Max Gust Speed 17 mph    
Visibility 10 miles    
Events      
Averages and records for this station are not official NWS values.
T = Trace of Precipitation, MM = Missing Value Source: NWS Daily Summary

Daily Weather History Graph

Daily Weather History Graph

Search for Another Location

Airport:

Trip Planner

Search our weather history database for the weather conditions in past years. The results will help you decide how hot, cold, wet, or windy it might be!

Date:

Astronomy

Sep. 18, 2011 Rise Set
Actual Time 7:00 AM EDT 7:19 PM EDT
Civil Twilight 6:34 AM EDT 7:44 PM EDT
Nautical Twilight 6:04 AM EDT 8:15 PM EDT
Astronomical Twilight 5:33 AM EDT 8:45 PM EDT
Moon 10:45 PM EDT (9/18) 12:44 PM EDT (9/18)
Length of Visible Light 13h 10m
Length of Day
12h 18m
Waning Gibbous, 68% of the Moon is Illuminated
Sep 18
Waning Gibbous
Sep 20
Last Quarter
Sep 27
New
Oct 3
First Quarter
Oct 11
Full

Hourly Weather History & Observations

Time (EDT) Temp. Dew Point Humidity Pressure Visibility Wind Dir Wind Speed Gust Speed Precip Events Conditions
12:15 AM 57.2 °F 53.6 °F 88% 30.33 in 10.0 mi Calm Calm - N/A   Overcast
12:35 AM 57.2 °F 53.6 °F 88% 30.33 in 10.0 mi Calm Calm - N/A   Overcast
12:55 AM 57.2 °F 53.6 °F 88% 30.33 in 10.0 mi Calm Calm - N/A   Overcast
1:15 AM 57.2 °F 53.6 °F 88% 30.32 in 10.0 mi Calm Calm - N/A   Overcast
1:35 AM 57.2 °F 53.6 °F 88% 30.33 in 10.0 mi Calm Calm - N/A   Overcast
1:55 AM 57.2 °F 53.6 °F 88% 30.32 in 10.0 mi Calm Calm - N/A   Overcast
2:15 AM 57.2 °F 53.6 °F 88% 30.32 in 10.0 mi Calm Calm - N/A   Overcast
2:35 AM 57.2 °F 53.6 °F 88% 30.31 in 10.0 mi Calm Calm - N/A   Overcast
2:55 AM 57.2 °F 53.6 °F 88% 30.32 in 10.0 mi Calm Calm - N/A   Overcast
3:15 AM 57.2 °F 53.6 °F 88% 30.31 in 10.0 mi Calm Calm - N/A   Overcast
3:35 AM 57.2 °F 53.6 °F 88% 30.31 in 10.0 mi Calm Calm - N/A   Overcast
3:55 AM 57.2 °F 53.6 °F 88% 30.31 in 10.0 mi Calm Calm - N/A   Overcast
4:15 AM 57.2 °F 53.6 °F 88% 30.31 in 10.0 mi Calm Calm - N/A   Overcast
4:35 AM 57.2 °F 55.4 °F 94% 30.32 in 10.0 mi Calm Calm - N/A   Overcast
4:55 AM 57.2 °F 53.6 °F 88% 30.32 in 10.0 mi Calm Calm - N/A   Overcast
5:15 AM 57.2 °F 53.6 °F 88% 30.32 in 10.0 mi Calm Calm - N/A   Overcast
5:35 AM 57.2 °F 53.6 °F 88% 30.32 in 10.0 mi Calm Calm - N/A   Overcast
5:55 AM 57.2 °F 53.6 °F 88% 30.33 in 10.0 mi Calm Calm - N/A   Overcast
6:15 AM 57.2 °F 53.6 °F 88% 30.33 in 10.0 mi Calm Calm - N/A   Overcast
6:35 AM 57.2 °F 53.6 °F 88% 30.34 in 10.0 mi Calm Calm - N/A   Overcast
6:55 AM 57.2 °F 53.6 °F 88% 30.34 in 10.0 mi Calm Calm - N/A   Overcast
7:15 AM 57.2 °F 53.6 °F 88% 30.34 in 10.0 mi Calm Calm - N/A   Overcast
7:35 AM 57.2 °F 53.6 °F 88% 30.35 in 10.0 mi Calm Calm - N/A   Overcast
7:55 AM 57.2 °F 53.6 °F 88% 30.36 in 10.0 mi North 5.8 mph - N/A   Overcast
8:15 AM 57.2 °F 53.6 °F 88% 30.36 in 10.0 mi Calm Calm - N/A   Overcast
8:35 AM 57.2 °F 53.6 °F 88% 30.35 in 10.0 mi Calm Calm - N/A   Mostly Cloudy
8:55 AM 57.2 °F 53.6 °F 88% 30.35 in 10.0 mi Calm Calm - N/A   Mostly Cloudy
9:15 AM 57.2 °F 53.6 °F 88% 30.36 in 10.0 mi Calm Calm - N/A   Overcast
9:35 AM 59.0 °F 53.6 °F 82% 30.35 in 10.0 mi Calm Calm - N/A   Overcast
9:55 AM 60.8 °F 53.6 °F 77% 30.36 in 10.0 mi Calm Calm - N/A   Mostly Cloudy
10:15 AM 60.8 °F 51.8 °F 72% 30.36 in 10.0 mi NE 4.6 mph - N/A   Mostly Cloudy
10:35 AM 62.6 °F 51.8 °F 68% 30.36 in 10.0 mi NE 8.1 mph 17.3 mph N/A   Overcast
10:55 AM 62.6 °F 51.8 °F 68% 30.36 in 10.0 mi NNE 11.5 mph - N/A   Overcast
11:15 AM 62.6 °F 51.8 °F 68% 30.36 in 10.0 mi NE 9.2 mph 16.1 mph N/A   Overcast
11:35 AM 64.4 °F 51.8 °F 64% 30.36 in 10.0 mi NNE 10.4 mph - N/A   Overcast
11:55 AM 66.2 °F 51.8 °F 60% 30.35 in 10.0 mi NNE 3.5 mph - N/A   Overcast
12:15 PM 66.2 °F 53.6 °F 64% 30.35 in 10.0 mi Calm Calm - N/A   Overcast
12:35 PM 66.2 °F 53.6 °F 64% 30.35 in 10.0 mi ENE 10.4 mph - N/A   Overcast
12:55 PM 66.2 °F 53.6 °F 64% 30.34 in 10.0 mi Calm Calm - N/A   Overcast
1:15 PM 66.2 °F 53.6 °F 64% 30.34 in 10.0 mi Calm Calm - N/A   Overcast
1:35 PM 66.2 °F 53.6 °F 64% 30.34 in 10.0 mi Calm Calm - N/A   Overcast
1:55 PM 69.8 °F 53.6 °F 56% 30.33 in 10.0 mi Calm Calm - N/A   Mostly Cloudy
2:15 PM 66.2 °F 53.6 °F 64% 30.33 in 10.0 mi Calm Calm - N/A   Mostly Cloudy
2:35 PM 66.2 °F 53.6 °F 64% 30.32 in 10.0 mi Calm Calm - N/A   Mostly Cloudy
2:55 PM 68.0 °F 53.6 °F 60% 30.31 in 10.0 mi ENE 5.8 mph - N/A   Mostly Cloudy
3:15 PM 69.8 °F 53.6 °F 56% 30.31 in 10.0 mi NNE 9.2 mph - N/A   Mostly Cloudy
3:35 PM 66.2 °F 53.6 °F 64% 30.31 in 10.0 mi Calm Calm - N/A   Overcast
3:55 PM 66.2 °F 53.6 °F 64% 30.31 in 10.0 mi Calm Calm - N/A   Overcast
4:15 PM 66.2 °F 53.6 °F 64% 30.30 in 10.0 mi Calm Calm - N/A   Overcast
4:35 PM 66.2 °F 53.6 °F 64% 30.30 in 10.0 mi Calm Calm - N/A   Overcast
4:55 PM 68.0 °F 55.4 °F 64% 30.30 in 10.0 mi Calm Calm - N/A   Unknown
5:15 PM 66.2 °F 55.4 °F 68% 30.30 in 10.0 mi Calm Calm - N/A   Unknown
5:35 PM 66.2 °F 55.4 °F 68% 30.30 in 10.0 mi Calm Calm - N/A   Unknown
5:55 PM 66.2 °F 55.4 °F 68% 30.31 in 10.0 mi Calm Calm - N/A   Unknown
6:15 PM 64.4 °F 55.4 °F 73% 30.31 in 10.0 mi Calm Calm - N/A   Unknown
6:35 PM 64.4 °F 55.4 °F 73% 30.31 in 10.0 mi Calm Calm - N/A   Unknown
6:55 PM 64.4 °F 55.4 °F 73% 30.30 in 10.0 mi Calm Calm - N/A   Overcast
7:15 PM 64.4 °F 55.4 °F 73% 30.30 in 10.0 mi Calm Calm - N/A   Overcast
7:35 PM 64.4 °F 57.2 °F 77% 30.30 in 10.0 mi Calm Calm - N/A   Unknown
7:55 PM 64.4 °F 57.2 °F 77% 30.30 in 10.0 mi Calm Calm - N/A   Unknown
8:15 PM 62.6 °F 57.2 °F 82% 30.31 in 10.0 mi Calm Calm - N/A   Unknown
8:35 PM 62.6 °F 57.2 °F 82% 30.31 in 10.0 mi Calm Calm - N/A   Unknown
8:55 PM 62.6 °F 57.2 °F 82% 30.32 in 10.0 mi Calm Calm - N/A   Unknown
9:15 PM 62.6 °F 57.2 °F 82% 30.32 in 10.0 mi Calm Calm - N/A   Unknown
9:35 PM 62.6 °F 57.2 °F 82% 30.32 in 10.0 mi Calm Calm - N/A   Unknown
9:55 PM 62.6 °F 57.2 °F 82% 30.32 in 10.0 mi Calm Calm - N/A   Unknown
10:15 PM 62.6 °F 57.2 °F 82% 30.32 in 10.0 mi Calm Calm - N/A   Unknown
10:35 PM 62.6 °F 57.2 °F 82% 30.32 in 10.0 mi Calm Calm - N/A   Unknown
10:55 PM 62.6 °F 57.2 °F 82% 30.31 in 10.0 mi Calm Calm - N/A   Unknown
11:15 PM 62.6 °F 57.2 °F 82% 30.31 in 10.0 mi Calm Calm - N/A   Unknown
11:35 PM 62.6 °F 57.2 °F 82% 30.30 in 10.0 mi Calm Calm - N/A   Unknown
11:55 PM 62.6 °F 57.2 °F 82% 30.30 in 10.0 mi Calm Calm - N/A   Unknown